Regional Weather Roundup
Issued by NWS

Home | Current Version | Previous Version | Graphics & Text | Print | Product List | Glossary On
Versions: 1 2 3 4 5 6 7 8 9 10 11 12 13 14 15 16 17 18 19 20 21 22 23 24 25 26 27 28 29 30 31 32 33 34 35 36 37 38 39 40 41 42 43 44 45 46 47 48 49 50
000
ASUS45 KBOU 282007
RWRCO

WEATHER ROUNDUP FOR COLORADO
NATIONAL WEATHER SERVICE DENVER/BOULDER CO
200 PM MDT FRI AUG 28 2015

NOTE: "FAIR" INDICATES FEW OR NO CLOUDS BELOW 12000 FEET WITH NO
SIGNIFICANT WEATHER AND/OR OBSTRUCTIONS TO VISIBILITY.

COZ001>005-013-030-031-282100-
...NORTHWEST COLORADO...

CITY           SKY/WX    TMP DP  RH WIND       PRES   REMARKS
CRAIG          SUNNY     79  39  23 VRB3      30.32F
HAYDEN         NOT AVBL
MEEKER         MOSUNNY   78  45  30 SE12      30.32F
MOUNT WERNER   NOT AVBL
STEAMBOAT SPGS SUNNY     72  47  40 S3        30.37F
WALDEN         CLOUDY    64  39  39 CALM      30.44S
$$

COZ006>008-011-282100-
...WEST CENTRAL VALLEYS...

CITY           SKY/WX    TMP DP  RH WIND       PRES   REMARKS
GRAND JUNCTION SUNNY     83  50  31 SW9       30.21F
MONTROSE       SUNNY     80  46  30 W8        30.30F
EAGLE          SUNNY     75  43  31 CALM      30.36F
RIFLE          SUNNY     80  48  32 NW6       30.26F
DELTA          SUNNY     80  51  36 CALM      30.25F
NUCLA          SUNNY     84  30  14 NW9       30.31F
$$

COZ017>023-064>068-282100-
...SOUTHWEST COLORADO...

CITY           SKY/WX    TMP DP  RH WIND       PRES   REMARKS
DURANGO        SUNNY     81  37  20 S9        30.27F
CORTEZ         SUNNY     86  39  19 N14G20    30.22F
PAGOSA SPRINGS SUNNY     78  25  14 SW6       30.35F
TELLURIDE      SUNNY     69  35  28 CALM      30.51F
WOLF CREEK PAS PTSUNNY   54  30  40 NE13G21   30.70F
$$

COZ009-010-012-014-032>034-037-058>063-282100-
...CENTRAL COLORADO...

CITY           SKY/WX    TMP DP  RH WIND       PRES   REMARKS
ASPEN          MOSUNNY   71  43  36 W3G13     30.41F
BUENA VISTA    SUNNY     77  26  15 NW10G23   30.38S
COPPER MTN     MOSUNNY   55  37  50 W18G24    30.71S
BERTHOUD PASS  PTSUNNY   46  34  61 NW15      30.75S
COTTONWOOD PAS CLOUDY    68  27  21 CALM      30.54S
GUNNISON       PTSUNNY   72  39  30 E3        30.41F
KREMMLING      MOSUNNY   73  41  31 CALM      30.41F
LEADVILLE      MOSUNNY   64  32  30 N9G20     30.54F
MONARCH PASS   PTSUNNY   55  34  44 NE8       30.79F
SALIDA         SUNNY     80  32  17 E5        30.42F
SUNLIGHT       PTSUNNY   55  45  67 CALM      30.66F
WILKERSON PASS CLOUDY    55  36  47 CALM      30.67S
$$

COZ069>075-282100-
...SAN LUIS VALLEY/SANGRE DE CRISTO MOUNTAINS...

CITY           SKY/WX    TMP DP  RH WIND       PRES   REMARKS
ALAMOSA        SUNNY     78  33  19 NW9       30.34F
LA VETA PASS   PTSUNNY   66  41  39 NE12G17   30.56S
SAGUACHE       PTSUNNY   73  32  21 CALM      30.38F
$$

COZ035-036-038>040-282100-
...NORTHERN COLORADO FRONT RANGE...

CITY           SKY/WX    TMP DP  RH WIND       PRES   REMARKS
DENVER INTL AP MOSUNNY   83  42  23 N9G21     30.23F
DMNS CITY PARK   N/A     83  41  22 NE10G20   30.23S
AURORA         MOSUNNY   82  44  26 NE6       30.25F
FRONT RANGE AP MOSUNNY   82  39  21 N13       30.24F
ERIE MUNI ARPT MOSUNNY   84  40  20 N5G16     30.21F
BOULDER MUN AP MOSUNNY   81  41  24 NE3       30.22F
CENTENNIAL     PTSUNNY   80  42  25 N14       30.26F
BROOMFIELD     PTSUNNY   82  41  23 VRB7      30.26F
FORT COLLINS   MOSUNNY   82  43  24 N12       30.19F
LONGMONT       MOSUNNY   87  42  20 N5        30.22F
$$

COZ041-046-047-076>085-087-088-282100-
...PIKES PEAK/PALMER DIVIDE AND SOUTHERN FOOTHILLS...

CITY           SKY/WX    TMP DP  RH WIND       PRES   REMARKS
COLO. SPRINGS  MOSUNNY   81  42  25 N13       30.28F
A. F. ACADEMY  MOSUNNY   77  43  29 N16       30.29F
ELLICOTT       MOSUNNY  N/A N/A N/A N17G23    30.27F
FALCON         SUNNY     76  44  32 MISG      30.34F
FORT CARSON    MOSUNNY   81  47  29 NE12      30.25F
LIMON          MOSUNNY   81  45  28 N17G24    30.22F
MONUMENT HILL  SUNNY     73  37  27 N5G24     30.35F
TRINIDAD       MOSUNNY   83  48  29 NE13G21   30.23F
$$

COZ042>045-048>051-090-091-282100-
...NORTHEAST COLORADO...

CITY           SKY/WX    TMP DP  RH WIND       PRES   REMARKS
GREELEY ARPT   MOSUNNY   84  45  24 N12G21    30.19F
AKRON          SUNNY     86  42  21 NW15      30.15F
BURLINGTON     MOSUNNY   88  45  22 N14G23    30.10F
WRAY           SUNNY     92  40  16 NW17G28   30.07S
STERLING       SUNNY     88  46  23 N9        30.10F
HOLYOKE        SUNNY     91  46  21 N20       30.07F
FORT MORGAN    MOSUNNY   87  43  21 N13       30.17S
$$

COZ086-089-092>099-282100-
...SOUTHEAST COLORADO...

CITY           SKY/WX    TMP DP  RH WIND       PRES   REMARKS
PUEBLO         PTSUNNY   86  43  22 N8        30.17F
LA JUNTA       SUNNY     90  49  24 N13G23    30.14S
LAMAR          MOSUNNY   90  54  29 N10       30.07F
SPRINGFIELD      N/A     87  52  29 NW9       30.12F
$$



USA.gov is the U.S. government's official web portal to all federal, state and local government web resources and services.